Location: Burland Observatory
(39.4088°N, 105.4217°W)
Time: 04:08:20
(UTC-07:00)

S-56A Canister/Altair - Pass Details

Date: 10 December 2019
Orbit: 634 x 2498 km, 38.9° (Epoch: 20 January)

Event Time Altitude Azimuth Distance (km) Brightness Sun altitude
Rises 06:38:54 0° 174° (S) 5,173 12.2 -6.3°
Reaches altitude 10° 06:44:30 10° 152° (SSE) 4,546 12.4 -5.3°
Maximum altitude 06:50:27 15° 124° (SE) 4,472 13.1 -4.3°
Drops below altitude 10° 06:56:56 10° 97° (E) 5,067 13.2 -3.2°
Sets 07:03:48 0° 78° (ENE) 6,175 13.0 -2.0°
